Погода в Бузулуке

Погода в Бузулуке : погода сейчас, прогноз погоды и архив. Всё, что Вы хотите узнать о погоде в Бузулуке!

Хотите узнать прогноз погоды в Бузулуке? Тогда Вам сюда: Погода в Бузулуке

Поиск расширенной информации на нашем сайте:

Другие новости

Новости СМИ2

Главная страница сайта

Новости сайта

03.07.2017

Напоминаем, что на нашем специализированном сайте Метеоцентр.Азия вы можете получить высокодетализированные автоматические прогнозы погоды по пунктам России, СНГ и мира в авиационном формате (включающие направление и скорость ветра, видимость, явления погоды, количество и форму облачности, нижнюю и верхнюю границу облачности).

Рекомендуем: металлический сайдинг под бревно

Погода в Бузулуке - сегодня

Время (UTC), дата Ветер
(°,м/с) 
Видим.   Явления Облачность Т
(°С)
Тd
(°С)
f(%) Тe
(°С)
Pmin
(гПа)
dP
(гПа)
Po
(мм)
O2
(г/м3)
Тmin Tmax R s Состояние
почвы
21 16.02.18 тихо ()   10 км    ясно 
-16.4 -17.4 92 -16  1043.8  -0.2  775  334           
00 17.02.18 120 (ЮВ) 10 км    ясно 
-15.9 -17 91 -16  1043.9  0.1  775  333           
03 17.02.18 120 (ЮВ) 4000 м  дымка [диам. изморози 4 мм]  10/0 средняя 
[As op]
-16 -17 92 -16  1043.6  -0.3  774  333  -18.4      10  равномерный
мокрый или
старый снег
100% 
09 17.02.18 130 (ЮВ) 10 км    9/3 300 м средняя 
[Sc|Ac trans]
-9.4 -10.1 95 -11  1041.8  -0.9  773  324           
12 17.02.18 120 (ЮВ) 10 км    9/5 300 м средняя 
[Sc|Ac trans]
-6.9 -9.5 82 -7  1040.4  -1.3  772  320           
18 17.02.18 130 (ЮВ) 10 км    9/0 средняя 
[Ac trans]
-9.1 -10.3 91 -11  1039.2  -0.8  771  323           
21 17.02.18 120 (ЮВ) 10 км    9/0 средняя 
[Ac trans]
-9.1 -10.3 91 -11  1038.7  -0.8  771  322           
00 18.02.18 140 (ЮВ) 10 км    ясно 
-10.9 -11.6 95 -13  1038.1  -0.6  771  325           
06 18.02.18 120 (ЮВ) 10 км    ясно 
-11.3 -13 87 -14  1037  -0.2  770  325           
09 18.02.18 130 (ЮВ) 10 км    8/0 средняя, верхняя 
[Ac lent|Ci]
-6.3 -10.8 70 -10  1035.8  -1  769  318           
12 18.02.18 120 (ЮВ) 10 км    9/0 средняя, верхняя 
[Ac lent|Ci sp]
-4.4 -9.8 66 -8  1034  -1.7  768  315           
18 18.02.18 130 (ЮВ) 5{10}  10 км    10/3 600 м средняя 
[Sc|As op]
-6.6 -9.7 79 -11  1031.2  -1.4  766  317           
03 19.02.18 140 (ЮВ) 10 км  слаб. снег  10/10 270 м 
[Frnb|Ns]
-8.3 -10 87 -13  1027.6  -1.4  763  318  -9    15  равномерный
сухой снег
100% 
06 19.02.18 140 (ЮВ) 10 км  {снег}  10/5 600 м средняя 
[Sc|As op]
-7.6 -11.9 71 -11  1027  -0.6  762  317           
09 19.02.18 160 (Ю) 10 км    10/5 600 м средняя 
[Sc|As op]
-6.6 -12.2 64 -10  1026.8  -0.1  762  316           
12 19.02.18 140 (ЮВ) 10 км    10/5 600 м средняя 
[Sc|As op]
-5.6 -11.2 65 -9  1025.2  -1.5  761  314           
18 19.02.18 140 (ЮВ) 10 км    10/5 600 м средняя 
[Sc|As op]
-5.4 -8.6 78 -8  1022.3  -1.4  759  313           
21 19.02.18 150 (ЮВ) 10 км    10/5 600 м средняя 
[Sc|As op]
-5.8 -8.6 81 -8  1021  -1.3  758  313           
03 20.02.18 150 (ЮВ) 4000 м  слаб. снег  10/10 270 м 
[Frnb|Ns]
-7.1 -7.7 95 -9  1018.6  -1.2  756  314  -7.1    19  равномерный
сухой снег
100% 
09 20.02.18 240 (ЮЗ) 10 км  {снег}  5/3 300 м средняя 
[Sc|Ac trans]
-5.1 -8.9 75 -5  1017.9  -0.2  756  311           
12 20.02.18 260 (З) 10 км  {снег}  ясно 
-5.7 -10.4 69 -7  1017.6  -0.2  755  312           
15 20.02.18 тихо ()   10 км    ясно 
-12.1 -13.2 91 -12  1017.8  0.1  755  320    -5  0.6     
18 20.02.18 170 (Ю) 10 км    3/0 средняя 
[Ac trans]
-12.9 -13.7 94 -13  1018.2  0.4  756  321           
03 21.02.18 160 (Ю) 10 км  {снег}  10/5 300 м средняя 
[Sc|As op]
-9.4 -10.3 93 -9  1018  0.3  756  316  -13.5    0.3  20  равномерный
сухой снег
100% 
06 21.02.18 230 (ЮЗ) 10 км  {снег}  10/4 300 м средняя 
[Sc|As op]
-6.8 -7.9 92 -8  1019.2  1.2  757  313           
Время (UTC), дата Ветер
(°,м/с) 
Видим.   Явления Облачность Т
(°С)
Тd
(°С)
f(%) Тe
(°С)
Pmin
(гПа)
dP
(гПа)
Po
(мм)
O2
(г/м3)
Тmin Tmax R s Состояние
почвы

Для получения пояснительной информации подведите курсор к названию столбца.

ПОГОДА в Бузулуке - архив

Всё, что Вы хотите узнать о погоде в Бузулуке - удобно и подробно!

Выберите нужную дату (начиная с 1 января 2015* года) и нажмите кнопку "Найти".
Будут отображены архивные сводки погоды по пункту Бузулук, начиная с указанной даты.


Отображать данные в формате CSV (для использования в таблицах Excel)


Внимание! Наш архив погоды предназначен исключительно для личного некоммерческого использования в познавательных целях. Если Вам необходимы официальные справки о состоянии погоды (для производственных, юридических, коммерческих и т.п. целей), обращайтесь в органы Росгидромета.

*Примечание: данная дата относится к архиву по метеостанциям СССР (Россия, СНГ, Балтия).
Архив по метеостанциям Зарубежной Европы и Азии (кроме Китая) хранится 10 дней, по другим регионам земного шара (Китай, Африка, Америка, Австралия, Океания) - 1 день.

Бузулук - район местоположения метеостанции


Название, широта, долгота, высота метеостанции:
Бузулук 52.8°ш. 52.2°д. 80 м над ур. моря [Российская Федерация]

Дополнительная информация

В oтличие oт бoльшинства пoгoдных сайтoв мы публикуем пoдрoбную метеoинфoрмацию в детальнoм прoфессиoнальнoм фoрмате.

Характеристики температуры и влажнoсти вoздуха измеряются на высoте 2 м в тени вдали oт зданий и деревьев.
Скoрoсть ветра измеряется на высoте 10 м (на урoвне рoста челoвека скoрoсть ветра ниже в 1.5-2 раза). Если метеoстанция нахoдится в гoрoде или в лесу, тo скoрoсть ветра занижена на 2-4 м/с пo сравнению с oткрытым местoм. Скoрoсть ветра над акватoриями крупных рек и oзёр, а также на вершинах хoлмoв на 2-5 м/с выше, чем в oбычных услoвиях.
Атмoсфернoе давление в разных тoчках местнoсти мoжет значительнo oтличаться oт давления на метеoстанции, в зависимoсти oт услoвий рельефа (при пoдъёме на 10 м давление пoнижается примернo на 1 мм рт.ст.).